| time (UTC) | temp F | wind direction | speed knots | gust knots | rain 1hr in | rain 24hr in | rain mn in | humidity % | barometer mb |
| 20260507221343 | 96 | 135 | 0.9 | 5.2 | 0.00 | 0.00 | 0.00 | 10 | 1007.6 |
| 20260507221114 | 96 | 23 | 0.9 | 4.3 | 0.00 | 0.00 | 0.00 | 12 | 1008.0 |
| 20260507220343 | 95 | 23 | 0.9 | 6.1 | 0.00 | 0.00 | 0.00 | 12 | 1007.6 |
| 20260507215844 | 95 | 315 | 0.9 | 6.1 | 0.00 | 0.00 | 0.00 | 11 | 1008.0 |
| 20260507215333 | 95 | 225 | 0.9 | 6.1 | 0.00 | 0.00 | 0.00 | 11 | 1007.6 |
| 20260507214825 | 94 | 225 | 0.9 | 6.1 | 0.00 | 0.00 | 0.00 | 10 | 1008.0 |
| 20260507214323 | 94 | 180 | 0.9 | 7.0 | 0.00 | 0.00 | 0.00 | 11 | 1008.0 |
| 20260507213824 | 95 | 180 | 1.7 | 7.0 | 0.00 | 0.00 | 0.00 | 11 | 1008.0 |
| 20260507213323 | 95 | 180 | 0.9 | 5.2 | 0.00 | 0.00 | 0.00 | 12 | 1008.3 |
| 20260507212824 | 95 | 203 | 0.9 | 4.3 | 0.00 | 0.00 | 0.00 | 12 | 1008.3 |
| 20260507212325 | 95 | 203 | 0.9 | 4.3 | 0.00 | 0.00 | 0.00 | 12 | 1008.3 |
| 20260507211825 | 95 | 180 | 0.0 | 3.5 | 0.00 | 0.00 | 0.00 | 10 | 1008.7 |
| 20260507211325 | 95 | 45 | 0.0 | 3.5 | 0.00 | 0.00 | 0.00 | 11 | 1008.7 |
| 20260507210824 | 95 | 203 | 0.0 | 6.1 | 0.00 | 0.00 | 0.00 | 11 | 1008.7 |
| 20260507210323 | 95 | 225 | 1.7 | 6.1 | 0.00 | 0.00 | 0.00 | 10 | 1008.7 |
| 20260507205823 | 95 | 270 | 0.9 | 6.1 | 0.00 | 0.00 | 0.00 | 11 | 1009.0 |
| 20260507205328 | 95 | 315 | 0.9 | 6.1 | 0.00 | 0.00 | 0.00 | 12 | 1008.7 |
| 20260507204822 | 95 | 225 | 0.9 | 4.3 | 0.00 | 0.00 | 0.00 | 11 | 1009.0 |
| 20260507204323 | 95 | 45 | 0.0 | 4.3 | 0.00 | 0.00 | 0.00 | 12 | 1008.7 |
| 20260507203824 | 95 | 270 | 0.0 | 3.5 | 0.00 | 0.00 | 0.00 | 12 | 1009.0 |
| 20260507203324 | 95 | 68 | 0.9 | 3.5 | 0.00 | 0.00 | 0.00 | 12 | 1009.0 |
| 20260507202824 | 95 | 248 | 0.0 | 3.5 | 0.00 | 0.00 | 0.00 | 12 | 1009.0 |
| 20260507202324 | 95 | 158 | 0.9 | 3.5 | 0.00 | 0.00 | 0.00 | 12 | 1009.3 |
| 20260507201823 | 95 | 203 | 0.0 | 1.7 | 0.00 | 0.00 | 0.00 | 12 | 1009.3 |
| 20260507201323 | 95 | 293 | 0.0 | 1.7 | 0.00 | 0.00 | 0.00 | 12 | 1009.7 |
| 20260507200823 | 95 | 338 | 0.0 | 1.7 | 0.00 | 0.00 | 0.00 | 12 | 1009.7 |
| 20260507200324 | 95 | 180 | 0.0 | 4.3 | 0.00 | 0.00 | 0.00 | 12 | 1009.7 |
| 20260507195823 | 95 | 45 | 0.9 | 4.3 | 0.00 | 0.00 | 0.00 | 12 | 1009.7 |
| 20260507195325 | 94 | 270 | 0.9 | 5.2 | 0.00 | 0.00 | 0.00 | 12 | 1009.7 |
| 20260507194824 | 94 | 180 | 0.9 | 5.2 | 0.00 | 0.00 | 0.00 | 12 | 1009.7 |
| 20260507194326 | 94 | 338 | 0.0 | 3.5 | 0.00 | 0.00 | 0.00 | 15 | 1010.0 |
| 20260507193824 | 94 | 45 | 0.9 | 5.2 | 0.00 | 0.00 | 0.00 | 13 | 1010.0 |
| 20260507193324 | 93 | 45 | 0.9 | 5.2 | 0.00 | 0.00 | 0.00 | 13 | 1010.0 |
| 20260507192823 | 93 | 68 | 0.0 | 2.6 | 0.00 | 0.00 | 0.00 | 13 | 1010.0 |
| 20260507192324 | 93 | 225 | 0.0 | 3.5 | 0.00 | 0.00 | 0.00 | 12 | 1010.0 |
| 20260507191823 | 93 | 203 | 0.0 | 3.5 | 0.00 | 0.00 | 0.00 | 12 | 1010.0 |
| 20260507191323 | 93 | 203 | 0.9 | 4.3 | 0.00 | 0.00 | 0.00 | 12 | 1010.5 |
| 20260507190824 | 92 | 45 | 0.9 | 4.3 | 0.00 | 0.00 | 0.00 | 15 | 1010.5 |
| 20260507190325 | 92 | 338 | 0.0 | 4.3 | 0.00 | 0.00 | 0.00 | 12 | 1010.0 |
| 20260507185824 | 92 | 270 | 0.0 | 7.0 | 0.00 | 0.00 | 0.00 | 15 | 1010.8 |
| 20260507185556 | 91 | 203 | 0.9 | 7.0 | 0.00 | 0.00 | 0.00 | 13 | 1010.8 |
| 20260507185056 | 91 | 45 | 0.9 | 3.5 | 0.00 | 0.00 | 0.00 | 15 | 1010.8 |
| 20260507184323 | 91 | 0 | 0.0 | 2.6 | 0.00 | 0.00 | 0.00 | 13 | 1011.1 |
| 20260507184055 | 91 | 45 | 0.0 | 3.5 | 0.00 | 0.00 | 0.00 | 12 | 1011.1 |
| 20260507183323 | 91 | 135 | 0.9 | 3.5 | 0.00 | 0.00 | 0.00 | 12 | 1011.1 |
| 20260507182822 | 90 | 158 | 0.9 | 3.5 | 0.00 | 0.00 | 0.00 | 13 | 1011.1 |
| 20260507182324 | 90 | 248 | 0.9 | 3.5 | 0.00 | 0.00 | 0.00 | 12 | 1011.1 |
| 20260507182054 | 89 | 45 | 0.0 | 2.6 | 0.00 | 0.00 | 0.00 | 15 | 1011.5 |
| 20260507181554 | 89 | 90 | 0.0 | 2.6 | 0.00 | 0.00 | 0.00 | 15 | 1011.1 |
| 20260507180824 | 88 | 158 | 0.0 | 4.3 | 0.00 | 0.00 | 0.00 | 15 | 1011.5 |
| 20260507180324 | 88 | 248 | 0.9 | 4.3 | 0.00 | 0.00 | 0.00 | 15 | 1011.5 |
| 20260507175823 | 88 | 180 | 0.9 | 3.5 | 0.00 | 0.00 | 0.00 | 17 | 1011.5 |
| 20260507175553 | 87 | 135 | 0.0 | 1.7 | 0.00 | 0.00 | 0.00 | 17 | 1011.5 |
| 20260507174822 | 87 | 338 | 0.0 | 2.6 | 0.00 | 0.00 | 0.00 | 17 | 1011.8 |
| 20260507174322 | 87 | 270 | 0.0 | 3.5 | 0.00 | 0.00 | 0.00 | 19 | 1011.8 |
| 20260507173823 | 87 | 315 | 0.0 | 3.5 | 0.00 | 0.00 | 0.00 | 19 | 1011.8 |
| 20260507173323 | 86 | 0 | 0.9 | 3.5 | 0.00 | 0.00 | 0.00 | 19 | 1011.8 |
| 20260507172823 | 86 | 45 | 0.9 | 3.5 | 0.00 | 0.00 | 0.00 | 17 | 1011.8 |
| 20260507172554 | 86 | 45 | 0.0 | 2.6 | 0.00 | 0.00 | 0.00 | 19 | 1011.8 |
| 20260507171824 | 86 | 0 | 0.0 | 2.6 | 0.00 | 0.00 | 0.00 | 20 | 1012.1 |
| 20260507171328 | 86 | 0 | 0.0 | 3.5 | 0.00 | 0.00 | 0.00 | 20 | 1011.8 |
| 20260507170822 | 85 | 158 | 0.9 | 3.5 | 0.00 | 0.00 | 0.00 | 19 | 1011.8 |
| 20260507170323 | 85 | 113 | 0.9 | 3.5 | 0.00 | 0.00 | 0.00 | 19 | 1011.8 |
| 20260507165823 | 84 | 203 | 0.9 | 3.5 | 0.00 | 0.00 | 0.00 | 20 | 1012.1 |
| 20260507165553 | 84 | 315 | 0.0 | 2.6 | 0.00 | 0.00 | 0.00 | 20 | 1012.1 |
| 20260507164823 | 84 | 225 | 0.0 | 2.6 | 0.00 | 0.00 | 0.00 | 20 | 1012.1 |
| 20260507164323 | 83 | 248 | 0.9 | 4.3 | 0.00 | 0.00 | 0.00 | 22 | 1012.1 |
| 20260507164055 | 83 | 45 | 0.0 | 4.3 | 0.00 | 0.00 | 0.00 | 24 | 1012.1 |
| 20260507163323 | 82 | 68 | 0.0 | 2.6 | 0.00 | 0.00 | 0.00 | 25 | 1012.5 |
| 20260507162822 | 82 | 270 | 0.0 | 2.6 | 0.00 | 0.00 | 0.00 | 25 | 1012.1 |
| 20260507162322 | 82 | 23 | 0.0 | 2.6 | 0.00 | 0.00 | 0.00 | 25 | 1012.1 |
| 20260507161822 | 81 | 45 | 0.0 | 2.6 | 0.00 | 0.00 | 0.00 | 27 | 1012.5 |
| 20260507161324 | 80 | 158 | 0.0 | 2.6 | 0.00 | 0.00 | 0.00 | 27 | 1012.5 |
| 20260507160822 | 80 | 180 | 0.0 | 2.6 | 0.00 | 0.00 | 0.00 | 27 | 1012.5 |
| 20260507160324 | 80 | 0 | 0.0 | 1.7 | 0.00 | 0.00 | 0.00 | 27 | 1012.5 |
| 20260507155823 | 79 | 90 | 0.0 | 0.0 | 0.00 | 0.00 | 0.00 | 27 | 1012.5 |
| 20260507155324 | 79 | 135 | 0.0 | 0.0 | 0.00 | 0.00 | 0.00 | 27 | 1012.5 |
| 20260507154823 | 78 | 90 | 0.0 | 0.9 | 0.00 | 0.00 | 0.00 | 27 | 1012.5 |
| 20260507154324 | 78 | 158 | 0.0 | 0.9 | 0.00 | 0.00 | 0.00 | 29 | 1012.5 |
| 20260507153822 | 78 | 45 | 0.0 | 0.9 | 0.00 | 0.00 | 0.00 | 29 | 1012.5 |
| 20260507153323 | 78 | 45 | 0.0 | 1.7 | 0.00 | 0.00 | 0.00 | 29 | 1012.8 |
| 20260507152824 | 77 | 23 | 0.0 | 1.7 | 0.00 | 0.00 | 0.00 | 30 | 1012.5 |
| 20260507152322 | 78 | 68 | 0.0 | 0.9 | 0.00 | 0.00 | 0.00 | 30 | 1012.5 |
| 20260507151823 | 77 | 45 | 0.0 | 1.7 | 0.00 | 0.00 | 0.00 | 30 | 1012.8 |
| 20260507151305 | 77 | 23 | 0.0 | 1.7 | 0.00 | 0.00 | 0.00 | 30 | 1012.8 |
| 20260507150804 | 77 | 158 | 0.0 | 1.7 | 0.00 | 0.00 | 0.00 | 30 | 1012.5 |
| 20260507150305 | 76 | 45 | 0.0 | 1.7 | 0.00 | 0.00 | 0.00 | 31 | 1012.5 |
| 20260507145804 | 76 | 135 | 0.0 | 1.7 | 0.00 | 0.00 | 0.00 | 30 | 1012.5 |
| 20260507145306 | 75 | 270 | 0.0 | 1.7 | 0.00 | 0.00 | 0.00 | 30 | 1012.5 |
| 20260507144803 | 74 | 135 | 0.0 | 1.7 | 0.00 | 0.00 | 0.00 | 31 | 1012.5 |
| 20260507144304 | 74 | 203 | 0.0 | 0.9 | 0.00 | 0.00 | 0.00 | 34 | 1012.5 |
| 20260507143803 | 73 | 203 | 0.0 | 0.9 | 0.00 | 0.00 | 0.00 | 34 | 1012.5 |
| 20260507143304 | 72 | 180 | 0.0 | 0.9 | 0.00 | 0.00 | 0.00 | 34 | 1012.5 |
| 20260507142804 | 71 | 203 | 0.0 | 1.7 | 0.00 | 0.00 | 0.00 | 35 | 1012.1 |
| 20260507142306 | 70 | 68 | 0.0 | 1.7 | 0.00 | 0.00 | 0.00 | 35 | 1012.5 |
| 20260507141804 | 70 | 315 | 0.0 | 0.9 | 0.00 | 0.00 | 0.00 | 35 | 1012.1 |
| 20260507141304 | 69 | 338 | 0.0 | 0.9 | 0.00 | 0.00 | 0.00 | 37 | 1012.5 |
| 20260507140803 | 69 | 293 | 0.0 | 0.9 | 0.00 | 0.00 | 0.00 | 35 | 1012.1 |
| 20260507140303 | 69 | 0 | 0.0 | 0.9 | 0.00 | 0.00 | 0.00 | 37 | 1012.1 |
| 20260507135804 | 68 | 0 | 0.0 | 0.0 | 0.00 | 0.00 | 0.00 | 37 | 1012.1 |
| 20260507135306 | 68 | 338 | 0.0 | 0.0 | 0.00 | 0.00 | 0.00 | 37 | 1012.1 |
| 20260507134806 | 68 | 338 | 0.0 | 0.0 | 0.00 | 0.00 | 0.00 | 35 | 1012.1 |
| 20260507134305 | 67 | 68 | 0.0 | 0.0 | 0.00 | 0.00 | 0.00 | 37 | 1012.1 |
| 20260507133804 | 67 | 68 | 0.0 | 0.9 | 0.00 | 0.00 | 0.00 | 37 | 1011.8 |
| 20260507133304 | 67 | 68 | 0.0 | 1.7 | 0.00 | 0.00 | 0.00 | 35 | 1012.1 |
| 20260507132808 | 67 | 23 | 0.0 | 0.9 | 0.00 | 0.00 | 0.00 | 35 | 1012.1 |
| 20260507132804 | 67 | 45 | 0.0 | 1.7 | 0.00 | 0.00 | 0.00 | 35 | 1011.8 |
| 20260507131757 | 67 | 203 | 0.0 | 3.5 | 0.00 | 0.00 | 0.00 | 34 | 1011.8 |
| 20260507131244 | 66 | 0 | 0.0 | 4.3 | 0.00 | 0.00 | 0.00 | 35 | 1011.8 |
| 20260507130745 | 66 | 23 | 0.0 | 4.3 | 0.00 | 0.00 | 0.00 | 35 | 1011.8 |
| 20260507130244 | 66 | 23 | 0.0 | 3.5 | 0.00 | 0.00 | 0.00 | 35 | 1011.8 |
| 20260507125746 | 66 | 23 | 0.9 | 3.5 | 0.00 | 0.00 | 0.00 | 35 | 1011.5 |
| 20260507125245 | 66 | 23 | 0.0 | 2.6 | 0.00 | 0.00 | 0.00 | 35 | 1011.8 |
| 20260507124745 | 66 | 23 | 0.0 | 1.7 | 0.00 | 0.00 | 0.00 | 35 | 1011.8 |
| 20260507124246 | 66 | 0 | 0.0 | 2.6 | 0.00 | 0.00 | 0.00 | 35 | 1011.8 |
| 20260507123745 | 66 | 23 | 0.0 | 2.6 | 0.00 | 0.00 | 0.00 | 35 | 1011.8 |
| 20260507123245 | 66 | 338 | 0.0 | 1.7 | 0.00 | 0.00 | 0.00 | 35 | 1011.8 |
| 20260507122745 | 66 | 0 | 0.0 | 3.5 | 0.00 | 0.00 | 0.00 | 35 | 1011.8 |
| 20260507122245 | 66 | 45 | 0.9 | 3.5 | 0.00 | 0.00 | 0.00 | 35 | 1011.8 |
| 20260507121744 | 66 | 23 | 0.0 | 1.7 | 0.00 | 0.00 | 0.00 | 35 | 1011.8 |
| 20260507121245 | 66 | 23 | 0.0 | 0.9 | 0.00 | 0.00 | 0.00 | 35 | 1011.8 |
| 20260507120745 | 66 | 23 | 0.0 | 2.6 | 0.00 | 0.00 | 0.00 | 35 | 1011.8 |
| 20260507120516 | 66 | 45 | 0.0 | 2.6 | 0.00 | 0.00 | 0.00 | 35 | 1011.8 |
| 20260507115745 | 66 | 0 | 0.0 | 1.7 | 0.00 | 0.00 | 0.00 | 35 | 1011.8 |
| 20260507115245 | 66 | 45 | 0.0 | 1.7 | 0.00 | 0.00 | 0.00 | 35 | 1011.8 |
| 20260507114744 | 66 | 45 | 0.0 | 0.0 | 0.00 | 0.00 | 0.00 | 35 | 1011.8 |
| 20260507114248 | 66 | 45 | 0.0 | 0.9 | 0.00 | 0.00 | 0.00 | 35 | 1011.8 |
| 20260507114244 | 66 | 45 | 0.0 | 0.9 | 0.00 | 0.00 | 0.00 | 35 | 1011.8 |
| 20260507113244 | 66 | 45 | 0.0 | 1.7 | 0.00 | 0.00 | 0.00 | 35 | 1011.8 |
| 20260507112744 | 66 | 23 | 0.0 | 1.7 | 0.00 | 0.00 | 0.00 | 35 | 1011.8 |
| 20260507112245 | 66 | 45 | 0.0 | 2.6 | 0.00 | 0.00 | 0.00 | 35 | 1011.5 |
| 20260507111745 | 66 | 45 | 0.0 | 2.6 | 0.00 | 0.00 | 0.00 | 35 | 1011.8 |
| 20260507111515 | 66 | 45 | 0.0 | 1.7 | 0.00 | 0.00 | 0.00 | 37 | 1011.8 |
| 20260507110745 | 66 | 23 | 0.0 | 1.7 | 0.00 | 0.00 | 0.00 | 37 | 1011.8 |
| 20260507110245 | 66 | 68 | 0.0 | 0.0 | 0.00 | 0.00 | 0.00 | 37 | 1011.8 |
| 20260507105744 | 66 | 23 | 0.0 | 0.9 | 0.00 | 0.00 | 0.00 | 37 | 1011.8 |
| 20260507105244 | 66 | 45 | 0.0 | 1.7 | 0.00 | 0.00 | 0.00 | 37 | 1012.1 |
| 20260507104743 | 66 | 68 | 0.0 | 1.7 | 0.00 | 0.00 | 0.00 | 39 | 1011.8 |
| 20260507104244 | 66 | 68 | 0.0 | 0.9 | 0.00 | 0.00 | 0.00 | 37 | 1011.8 |
| 20260507103745 | 66 | 68 | 0.0 | 0.0 | 0.00 | 0.00 | 0.00 | 39 | 1011.8 |
| 20260507103246 | 66 | 90 | 0.0 | 0.0 | 0.00 | 0.00 | 0.00 | 37 | 1011.8 |
| 20260507102745 | 66 | 90 | 0.0 | 0.0 | 0.00 | 0.00 | 0.00 | 37 | 1011.8 |
| 20260507102245 | 67 | 90 | 0.0 | 0.0 | 0.00 | 0.00 | 0.00 | 40 | 1011.8 |
| 20260507101745 | 67 | 90 | 0.0 | 0.0 | 0.00 | 0.00 | 0.00 | 39 | 1011.8 |
| 20260507101244 | 67 | 45 | 0.0 | 0.0 | 0.00 | 0.00 | 0.00 | 39 | 1012.1 |
| 20260507100744 | 67 | 45 | 0.0 | 0.0 | 0.00 | 0.00 | 0.00 | 39 | 1012.1 |
| 20260507100244 | 67 | 45 | 0.0 | 0.0 | 0.00 | 0.00 | 0.00 | 37 | 1011.8 |
| 20260507095744 | 67 | 68 | 0.0 | 0.0 | 0.00 | 0.00 | 0.00 | 37 | 1011.8 |
| 20260507095245 | 67 | 45 | 0.0 | 0.0 | 0.00 | 0.00 | 0.00 | 37 | 1012.1 |
| 20260507094746 | 67 | 23 | 0.0 | 0.0 | 0.00 | 0.00 | 0.00 | 37 | 1012.1 |
| 20260507094245 | 67 | 23 | 0.0 | 0.0 | 0.00 | 0.00 | 0.00 | 37 | 1012.1 |
| 20260507093745 | 67 | 23 | 0.0 | 0.0 | 0.00 | 0.00 | 0.00 | 37 | 1012.1 |
| 20260507093516 | 67 | 68 | 0.0 | 0.0 | 0.00 | 0.00 | 0.00 | 37 | 1012.1 |
| 20260507092744 | 68 | 68 | 0.0 | 0.0 | 0.00 | 0.00 | 0.00 | 37 | 1012.5 |
| 20260507092244 | 68 | 68 | 0.0 | 0.0 | 0.00 | 0.00 | 0.00 | 37 | 1012.1 |
| 20260507091744 | 68 | 45 | 0.0 | 0.0 | 0.00 | 0.00 | 0.00 | 37 | 1012.1 |
| 20260507091244 | 68 | 45 | 0.0 | 0.0 | 0.00 | 0.00 | 0.00 | 37 | 1012.1 |
| 20260507090745 | 68 | 23 | 0.0 | 0.9 | 0.00 | 0.00 | 0.00 | 37 | 1012.5 |
| 20260507090245 | 68 | 23 | 0.0 | 1.7 | 0.00 | 0.00 | 0.00 | 37 | 1012.1 |
| 20260507090017 | 68 | 23 | 0.0 | 1.7 | 0.00 | 0.00 | 0.00 | 35 | 1012.1 |
| 20260507085245 | 68 | 23 | 0.0 | 1.7 | 0.00 | 0.00 | 0.00 | 35 | 1012.1 |
| 20260507084745 | 68 | 23 | 0.0 | 1.7 | 0.00 | 0.00 | 0.00 | 35 | 1012.1 |
| 20260507084244 | 68 | 23 | 0.0 | 1.7 | 0.00 | 0.00 | 0.00 | 37 | 1012.1 |
| 20260507083745 | 69 | 0 | 0.9 | 1.7 | 0.00 | 0.00 | 0.00 | 37 | 1012.5 |
| 20260507083515 | 69 | 338 | 0.0 | 1.7 | 0.00 | 0.00 | 0.00 | 37 | 1012.1 |
| 20260507083014 | 69 | 338 | 0.0 | 1.7 | 0.00 | 0.00 | 0.00 | 37 | 1012.1 |
| 20260507082227 | 69 | 45 | 0.0 | 1.7 | 0.00 | 0.00 | 0.00 | 37 | 1012.5 |
| 20260507081727 | 69 | 45 | 0.0 | 1.7 | 0.00 | 0.00 | 0.00 | 37 | 1012.5 |
| 20260507081226 | 69 | 293 | 0.0 | 0.0 | 0.00 | 0.00 | 0.00 | 37 | 1012.5 |
| 20260507080726 | 69 | 293 | 0.0 | 0.0 | 0.00 | 0.00 | 0.00 | 37 | 1012.5 |
| 20260507080226 | 69 | 293 | 0.0 | 0.0 | 0.00 | 0.00 | 0.00 | 37 | 1012.5 |
| 20260507075725 | 69 | 248 | 0.0 | 0.0 | 0.00 | 0.00 | 0.00 | 37 | 1012.5 |
| 20260507075459 | 69 | 113 | 0.0 | 0.0 | 0.00 | 0.00 | 0.00 | 37 | 1012.5 |
| 20260507074725 | 70 | 68 | 0.0 | 0.0 | 0.00 | 0.00 | 0.00 | 35 | 1012.5 |
| 20260507074457 | 70 | 68 | 0.0 | 0.0 | 0.00 | 0.00 | 0.00 | 35 | 1012.5 |
| 20260507073726 | 70 | 338 | 0.0 | 0.0 | 0.00 | 0.00 | 0.00 | 35 | 1012.5 |
| 20260507073226 | 70 | 68 | 0.0 | 0.0 | 0.00 | 0.00 | 0.00 | 35 | 1012.5 |
| 20260507072726 | 70 | 203 | 0.0 | 0.0 | 0.00 | 0.00 | 0.00 | 35 | 1012.5 |
| 20260507072226 | 71 | 203 | 0.0 | 0.0 | 0.00 | 0.00 | 0.00 | 35 | 1012.5 |
| 20260507071727 | 71 | 203 | 0.0 | 0.0 | 0.00 | 0.00 | 0.00 | 35 | 1012.5 |
| 20260507071224 | 71 | 180 | 0.0 | 0.0 | 0.00 | 0.00 | 0.00 | 35 | 1012.5 |
| 20260507070725 | 71 | 158 | 0.0 | 0.0 | 0.00 | 0.00 | 0.00 | 35 | 1012.5 |
| 20260507070225 | 71 | 68 | 0.0 | 0.0 | 0.00 | 0.00 | 0.00 | 34 | 1012.5 |
| 20260507065957 | 71 | 90 | 0.0 | 0.0 | 0.00 | 0.00 | 0.00 | 32 | 1012.5 |
| 20260507065455 | 71 | 23 | 0.0 | 0.0 | 0.00 | 0.00 | 0.00 | 32 | 1012.5 |
| 20260507064727 | 72 | 158 | 0.0 | 0.0 | 0.00 | 0.00 | 0.00 | 32 | 1012.5 |
| 20260507064226 | 72 | 270 | 0.0 | 0.0 | 0.00 | 0.00 | 0.00 | 32 | 1012.1 |
| 20260507063726 | 72 | 270 | 0.0 | 0.0 | 0.00 | 0.00 | 0.00 | 31 | 1012.1 |
| 20260507063226 | 73 | 270 | 0.0 | 0.0 | 0.00 | 0.00 | 0.00 | 31 | 1012.5 |
| 20260507062726 | 73 | 293 | 0.0 | 0.0 | 0.00 | 0.00 | 0.00 | 30 | 1012.1 |
| 20260507062455 | 73 | 293 | 0.0 | 0.0 | 0.00 | 0.00 | 0.00 | 30 | 1012.1 |
| 20260507062441 | 73 | 293 | 0.0 | 0.0 | 0.00 | 0.00 | 0.00 | 30 | 1012.1 |
| 20260507061457 | 73 | 293 | 0.0 | 0.0 | 0.00 | 0.00 | 0.00 | 30 | 1012.1 |
| 20260507060724 | 73 | 293 | 0.0 | 0.0 | 0.00 | 0.00 | 0.00 | 30 | 1012.1 |
| 20260507060226 | 73 | 270 | 0.0 | 0.0 | 0.00 | 0.00 | 0.00 | 30 | 1012.1 |
| 20260507055707 | 74 | 270 | 0.0 | 0.0 | 0.00 | 0.00 | 0.00 | 30 | 1012.5 |
| 20260507055208 | 74 | 270 | 0.0 | 0.0 | 0.00 | 0.00 | 0.00 | 30 | 1012.1 |
| 20260507054707 | 74 | 270 | 0.0 | 0.0 | 0.00 | 0.00 | 0.00 | 30 | 1012.1 |
| 20260507054207 | 74 | 270 | 0.0 | 0.0 | 0.00 | 0.00 | 0.00 | 30 | 1012.5 |
| 20260507053706 | 74 | 270 | 0.0 | 0.0 | 0.00 | 0.00 | 0.00 | 30 | 1012.1 |
| 20260507053206 | 74 | 270 | 0.0 | 0.0 | 0.00 | 0.00 | 0.00 | 30 | 1012.1 |
| 20260507052707 | 74 | 270 | 0.0 | 0.0 | 0.00 | 0.00 | 0.00 | 30 | 1012.1 |
| 20260507052206 | 75 | 270 | 0.0 | 0.0 | 0.00 | 0.00 | 0.00 | 30 | 1012.1 |
| 20260507051707 | 75 | 270 | 0.0 | 0.0 | 0.00 | 0.00 | 0.00 | 30 | 1012.1 |
| 20260507051208 | 75 | 270 | 0.0 | 0.0 | 0.00 | 0.00 | 0.00 | 30 | 1012.1 |
| 20260507050708 | 75 | 270 | 0.0 | 0.0 | 0.00 | 0.00 | 0.00 | 30 | 1012.1 |
| 20260507050438 | 75 | 270 | 0.0 | 0.0 | 0.00 | 0.00 | 0.00 | 29 | 1012.1 |
| 20260507045939 | 76 | 270 | 0.0 | 0.0 | 0.00 | 0.00 | 0.00 | 29 | 1012.1 |
| 20260507045206 | 76 | 270 | 0.0 | 0.0 | 0.00 | 0.00 | 0.00 | 29 | 1012.1 |
| 20260507044706 | 76 | 270 | 0.0 | 0.0 | 0.00 | 0.00 | 0.00 | 29 | 1012.1 |
| 20260507044437 | 76 | 270 | 0.0 | 0.0 | 0.00 | 0.00 | 0.00 | 27 | 1012.1 |
| 20260507043939 | 76 | 270 | 0.0 | 0.0 | 0.00 | 0.00 | 0.00 | 27 | 1012.1 |
| 20260507043206 | 76 | 270 | 0.0 | 0.0 | 0.00 | 0.00 | 0.00 | 25 | 1012.1 |
| 20260507042707 | 76 | 225 | 0.0 | 0.0 | 0.00 | 0.00 | 0.00 | 27 | 1011.8 |
| 20260507042207 | 77 | 225 | 0.0 | 0.0 | 0.00 | 0.00 | 0.00 | 25 | 1011.8 |
| 20260507041708 | 77 | 225 | 0.0 | 0.0 | 0.00 | 0.00 | 0.00 | 27 | 1012.1 |
| 20260507041154 | 77 | 225 | 0.0 | 0.0 | 0.00 | 0.00 | 0.00 | 27 | 1011.8 |
| 20260507040649 | 78 | 270 | 0.0 | 0.0 | 0.00 | 0.00 | 0.00 | 25 | 1011.8 |
| 20260507040147 | 78 | 248 | 0.0 | 0.0 | 0.00 | 0.00 | 0.00 | 25 | 1011.8 |
| 20260507035647 | 78 | 248 | 0.0 | 0.0 | 0.00 | 0.00 | 0.00 | 25 | 1011.5 |
| 20260507035148 | 78 | 248 | 0.0 | 0.0 | 0.00 | 0.00 | 0.00 | 25 | 1011.5 |
| 20260507034647 | 78 | 248 | 0.0 | 0.0 | 0.00 | 0.00 | 0.00 | 25 | 1011.8 |
| 20260507034148 | 78 | 248 | 0.0 | 0.0 | 0.00 | 0.00 | 0.00 | 25 | 1011.5 |
| 20260507033649 | 79 | 203 | 0.0 | 0.0 | 0.00 | 0.00 | 0.00 | 24 | 1011.5 |
| 20260507033148 | 79 | 180 | 0.0 | 0.9 | 0.00 | 0.00 | 0.00 | 24 | 1011.5 |
| 20260507032648 | 79 | 180 | 0.0 | 0.9 | 0.00 | 0.00 | 0.00 | 22 | 1011.5 |
| 20260507032148 | 80 | 158 | 0.0 | 0.9 | 0.00 | 0.00 | 0.00 | 22 | 1011.1 |
| 20260507031647 | 80 | 180 | 0.0 | 0.9 | 0.00 | 0.00 | 0.00 | 22 | 1011.1 |
| 20260507031148 | 80 | 180 | 0.0 | 0.9 | 0.00 | 0.00 | 0.00 | 22 | 1011.5 |
| 20260507030647 | 80 | 203 | 0.0 | 0.9 | 0.00 | 0.00 | 0.00 | 22 | 1011.1 |
| 20260507030147 | 80 | 158 | 0.0 | 1.7 | 0.00 | 0.00 | 0.00 | 22 | 1011.1 |
| 20260507025921 | 80 | 203 | 0.0 | 1.7 | 0.00 | 0.00 | 0.00 | 22 | 1011.1 |
| 20260507025111 | 81 | 225 | 0.0 | 3.5 | 0.00 | 0.00 | 0.00 | 22 | 1010.8 |
| 20260507024611 | 81 | 225 | 0.9 | 3.5 | 0.00 | 0.00 | 0.00 | 20 | 1010.8 |
| 20260507024111 | 81 | 270 | 0.0 | 1.7 | 0.00 | 0.00 | 0.00 | 20 | 1010.8 |
| 20260507023611 | 81 | 270 | 0.0 | 1.7 | 0.00 | 0.00 | 0.00 | 20 | 1010.8 |
| 20260507023340 | 81 | 225 | 0.0 | 1.7 | 0.00 | 0.00 | 0.00 | 20 | 1010.8 |
| 20260507022840 | 82 | 158 | 0.0 | 2.6 | 0.00 | 0.00 | 0.00 | 20 | 1010.5 |
| 20260507022110 | 82 | 248 | 0.0 | 2.6 | 0.00 | 0.00 | 0.00 | 20 | 1010.5 |
| 20260507021841 | 82 | 203 | 0.0 | 1.7 | 0.00 | 0.00 | 0.00 | 20 | 1010.5 |
| 20260507021110 | 82 | 203 | 0.0 | 1.7 | 0.00 | 0.00 | 0.00 | 20 | 1010.5 |
| 20260507020612 | 82 | 270 | 0.0 | 1.7 | 0.00 | 0.00 | 0.00 | 20 | 1010.5 |
| 20260507020111 | 83 | 225 | 0.0 | 1.7 | 0.00 | 0.00 | 0.00 | 20 | 1010.5 |
| 20260507015611 | 83 | 203 | 0.0 | 3.5 | 0.00 | 0.00 | 0.00 | 20 | 1010.5 |
| 20260507015111 | 83 | 270 | 0.0 | 3.5 | 0.00 | 0.00 | 0.00 | 20 | 1010.5 |
| 20260507014610 | 83 | 270 | 0.0 | 3.5 | 0.00 | 0.00 | 0.00 | 20 | 1010.0 |
| 20260507014110 | 83 | 180 | 0.0 | 3.5 | 0.00 | 0.00 | 0.00 | 20 | 1010.5 |
| 20260507013610 | 83 | 270 | 0.0 | 2.6 | 0.00 | 0.00 | 0.00 | 20 | 1010.5 |
| 20260507013110 | 83 | 68 | 0.0 | 2.6 | 0.00 | 0.00 | 0.00 | 20 | 1010.5 |
| 20260507012610 | 84 | 270 | 0.0 | 2.6 | 0.00 | 0.00 | 0.00 | 20 | 1010.0 |
| 20260507012111 | 84 | 225 | 0.0 | 3.5 | 0.00 | 0.00 | 0.00 | 19 | 1010.5 |
| 20260507011611 | 84 | 158 | 0.9 | 3.5 | 0.00 | 0.00 | 0.00 | 19 | 1010.0 |
| 20260507011111 | 84 | 203 | 0.0 | 4.3 | 0.00 | 0.00 | 0.00 | 19 | 1010.0 |
| 20260507010610 | 85 | 225 | 0.9 | 4.3 | 0.00 | 0.00 | 0.00 | 19 | 1010.5 |
| 20260507010341 | 85 | 270 | 0.9 | 4.3 | 0.00 | 0.00 | 0.00 | 19 | 1010.5 |
| 20260507005613 | 85 | 248 | 0.0 | 2.6 | 0.00 | 0.00 | 0.00 | 19 | 1010.0 |
| 20260507005109 | 85 | 270 | 0.0 | 2.6 | 0.00 | 0.00 | 0.00 | 19 | 1010.5 |
| 20260507004610 | 85 | 270 | 0.0 | 3.5 | 0.00 | 0.00 | 0.00 | 19 | 1010.0 |
| 20260507004109 | 86 | 203 | 0.9 | 3.5 | 0.00 | 0.00 | 0.00 | 17 | 1010.0 |
| 20260507003610 | 86 | 248 | 0.0 | 5.2 | 0.00 | 0.00 | 0.00 | 17 | 1010.0 |
| 20260507003111 | 86 | 270 | 0.9 | 5.2 | 0.00 | 0.00 | 0.00 | 17 | 1010.5 |
| 20260507002612 | 87 | 248 | 0.9 | 5.2 | 0.00 | 0.00 | 0.00 | 17 | 1010.0 |
| 20260507002111 | 87 | 158 | 0.9 | 3.5 | 0.00 | 0.00 | 0.00 | 19 | 1010.0 |
| 20260507001611 | 88 | 225 | 0.0 | 4.3 | 0.00 | 0.00 | 0.00 | 17 | 1010.5 |
| 20260507001111 | 88 | 293 | 0.9 | 4.3 | 0.00 | 0.00 | 0.00 | 19 | 1010.0 |
| 20260507000609 | 88 | 90 | 0.9 | 4.3 | 0.00 | 0.00 | 0.00 | 17 | 1010.0 |
| 20260507000109 | 88 | 248 | 0.9 | 4.3 | 0.00 | 0.00 | 0.00 | 17 | 1010.0 |
| 20260506235609 | 88 | 0 | 0.0 | 3.5 | 0.00 | 0.00 | 0.00 | 19 | 1010.0 |
| 20260506235111 | 88 | 203 | 0.0 | 5.2 | 0.00 | 0.00 | 0.00 | 17 | 1010.0 |
| 20260506234610 | 88 | 45 | 0.9 | 5.2 | 0.00 | 0.00 | 0.00 | 19 | 1010.0 |
| 20260506234110 | 87 | 270 | 0.9 | 3.5 | 0.00 | 0.00 | 0.00 | 19 | 1010.0 |
| 20260506233611 | 87 | 270 | 0.0 | 3.5 | 0.00 | 0.00 | 0.00 | 19 | 1010.5 |
| 20260506233110 | 87 | 135 | 0.9 | 5.2 | 0.00 | 0.00 | 0.00 | 19 | 1010.5 |
| 20260506232602 | 87 | 90 | 0.9 | 5.2 | 0.00 | 0.00 | 0.00 | 20 | 1010.5 |
| 20260506232050 | 87 | 203 | 0.9 | 5.2 | 0.00 | 0.00 | 0.00 | 20 | 1010.5 |
| 20260506231551 | 87 | 45 | 0.9 | 6.1 | 0.00 | 0.00 | 0.00 | 19 | 1010.8 |
| 20260506231050 | 87 | 338 | 0.9 | 6.1 | 0.00 | 0.00 | 0.00 | 19 | 1010.5 |
| 20260506230552 | 87 | 270 | 0.9 | 4.3 | 0.00 | 0.00 | 0.00 | 19 | 1010.5 |
| 20260506230052 | 87 | 158 | 0.0 | 4.3 | 0.00 | 0.00 | 0.00 | 20 | 1010.8 |
| 20260506225551 | 86 | 338 | 0.0 | 5.2 | 0.00 | 0.00 | 0.00 | 20 | 1010.8 |
| 20260506225052 | 86 | 23 | 0.0 | 5.2 | 0.00 | 0.00 | 0.00 | 20 | 1010.8 |
| 20260506224551 | 86 | 90 | 0.9 | 4.3 | 0.00 | 0.00 | 0.00 | 19 | 1010.8 |
| 20260506224050 | 87 | 203 | 0.0 | 3.5 | 0.00 | 0.00 | 0.00 | 19 | 1011.1 |
| 20260506223551 | 87 | 45 | 0.0 | 3.5 | 0.00 | 0.00 | 0.00 | 19 | 1011.1 |
| 20260506223051 | 87 | 203 | 0.9 | 6.1 | 0.00 | 0.00 | 0.00 | 19 | 1011.5 |
| 20260506222550 | 87 | 270 | 1.7 | 7.8 | 0.00 | 0.00 | 0.00 | 17 | 1011.1 |
| 20260506222051 | 87 | 293 | 1.7 | 7.8 | 0.00 | 0.00 | 0.00 | 19 | 1011.1 |
| 20260506221821 | 87 | 270 | 0.9 | 5.2 | 0.00 | 0.00 | 0.00 | 19 | 1011.5 |